SCP
0 0 0 0 0 0 0 0 0 0 0 0 0 0 0 0 0 0 0 0 0 0 0 0 0 0 0 0 0 0 0 0 0 0 0 0 0 0 0 0 0 0 0
0 0 0 0 0 0 0 0 0 0 0 0 0 0 0 0 0 0 0 0 0 0 0 0 0 0 0 0 0 0 0 0 0 0 0 0 0 0 0 0 0 0 0
0 0 0 0 0 0 0 0 0 0 0 0 0 0 0 0 0 0 0 0 0 0 0 0 0 0 0 0 0 0 0 0 0 0 0 0 0 0 0 0 0 0 0
0 0 0 0 0 0 0 0 0 0 0 0 0 0 0 0 0 0 0 0 0 0 0 0 0 0 0 0 0 0 0 0 0 0 0 0 0 0 0 0 0 0 0
0 0 0 0 0 0 0 0 0 0 0 0 0 0 0 0 0 0 0 0 0 0 0 0 0 0 0 0 0 0 0 0 0 0 0 0 0 0 0 0 0 0 0
0 -0 0 0 0 0 0 0 0 0 0 0 0 0 0 0 0 0 0 0 0 0 0 0 0 0 0 0 0 0 0 0 0 0 0 0 0 0 0 0 0 0 0
0 0 0 0 0 0 0 0 0 0 0 0 0 0 0 0 0 0 0 0 0 0 0 0 0 0 0 0 0 0 0 0 0 0 0 0 0 0 0 0 0 0 0
0 0 0 0 0 0 0 0 0 0 0 0 0 0 0 0 0 0 0 0 0 0 0 0 0 0 0 0 0 0 0 0 0 0 0 0 0 0 0 0 -0 0 0
-0 0 0 0 0 0 0 0 0 0 0 0 0 0 0 0 0 0 0 0 0 0 0 0 0 0 0 0 0 0 0 0 0 0 0 0 0 0 0 0 0 0 0
0 0 0 0 0 0 0 0 0 0 0 0 0 0 0 0 0 0 0 0 0 0 0 -0 -0 -0 0 0 -0 -0 0 0 0 0 0 0 0 0 0 0 0 0 0
0 0 -0 0 0 0 0 0 0 0 0 0 0 0 0 0 0 0 0 0 0 0 0 -0 -0 -0 -0 -0 -0 0 -0 0 0 0 0 0 0 0 0 0 0 0 0
-0 -0 -0 0 0 0 0 0 0 0 0 0 0 0 0 0 0 0 0 0 0 0 -0 -0 -0 -0 -0 -0 0 0 0 0 0 0 0 0 0 0 0 0 -0 -0 0
-0 -0 -0 0 0 0 0 0 0 0 0 0 0 0 0 0 0 0 0 -0 -0 -0 -0 -0 -0 -0 -0 -0 -0 0 -0 0 0 0 0 0 0 0 0 0 0 0 0
-0 -0 0 0 0 0 0 0 0 0 0 0 0 0 0 0 0 0 0 0 -0 -0 -0 -0 -0 -0 -0 -0 -0 0 0 0 0 0 0 0 0 0 0 0 0 0 0
-0 -0 -0 -0 0 0 0 0 0 0 0 0 0 0 0 0 0 0 0 0 0 0 0 0 0 0 0 -0 -0 -0 0 0 0 0 0 0 0 0 0 0 0 0 0
-0 -0 -0 -0 0 0 0 0 0 0 0 0 0 0 0 0 0 0 0 0 0 0 0 -0 0 0 0 -0 -0 -0 -0 0 0 0 0 0 0 0 0 0 0 0 0
-0 -0 -0 -0 0 0 0 0 0 0 0 0 0 0 0 0 0 0 0 0 0 0 0 0 0 0 0 0 -0 -0 0 0 -0 0 0 0 0 0 0 0 0 0 0
-0 0 0 -0 -0 0 0 0 0 0 0 0 0 0 0 0 0 0 0 0 0 0 0 0 0 0 0 0 0 0 0 0 0 0 0 -0 0 0 0 0 0 0 0
0 -0 0 -0 0 0 0 0 0 0 0 0 0 0 0 0 0 0 0 0 0 0 0 0 0 0 0 0 0 0 0 -0 -0 -0 0 0 -0 0 0 0 0 0 0
0 -0 -0 0 0 0 0 0 0 0 0 0 0 0 0 0 0 0 0 0 0 0 0 0 0 0 0 0 0 0 0 0 0 0 -0 -0 -0 0 0 0 0 0 0
0 -0 -0 0 0 0 0 0 0 0 0 0 0 0 0 0 0 0 0 0 0 0 0 0 0 0 0 0 0 0 0 0 0 -0 -0 -0 -0 0 0 0 0 0 0
0 -0 -0 0 0 0 0 0 0 0 0 0 0 0 0 0 0 0 0 0 0 0 0 0 0 0 0 0 0 -0 0 0 0 0 0 0 -0 0 0 0 0 0 0
0 0 0 0 0 0 0 0 0 0 0 0 0 0 0 0 0 0 0 0 0 0 0 0 0 0 0 0 0 0 0 0 0 0 0 0 0 0 0 0 0 0 0
0 0 0 0 0 0 0 0 0 0 0 0 0 0 0 0 0 0 0 0 0 0 0 0 0 0 0 0 0 0 0 0 0 0 0 0 0 0 0 0 0 0 0
0 0 0 0 0 0 0 0 0 0 0 0 0 0 0 0 0 0 0 0 0 0 0 0 0 0 0 0 0 0 0 0 0 0 0 0 0 0 0 0 0 0 0
0 0 0 0 0 0 0 0 0 0 0 0 0 0 0 0 0 0 0 0 0 0 0 0 0 0 0 0 0 0 0 0 0 0 0 0 0 0 0 0 0 0 0
Wind_Speed_500mb
28 32 41 41 41 41 41 41 41 45 48 53 59 65 63 54 48 45 44 43 44 45 46 48 46 43 41 43 51 53 51 50 41 45 51 67 68 66 72 81 72 70 85
9 15 23 30 34 37 37 38 42 45 50 57 60 58 53 49 47 46 44 44 45 46 48 47 45 41 35 41 43 47 51 46 37 40 39 44 46 64 66 68 69 67 77
6 9 15 23 27 29 32 35 40 47 53 55 51 47 45 42 40 38 44 46 45 45 46 46 42 38 35 39 41 38 39 44 44 42 46 33 45 38 55 59 65 70 73
4 3 12 18 21 25 30 37 43 47 47 45 42 42 41 40 38 42 41 44 46 44 40 38 39 35 37 42 43 38 39 42 46 43 56 65 46 19 20 44 55 64 70
6 10 15 19 23 29 34 41 43 41 40 39 38 38 38 37 39 38 39 38 39 41 37 35 44 45 46 42 45 46 45 45 49 52 47 50 60 54 46 17 42 61 71
15 18 21 24 29 33 35 37 37 36 36 36 35 35 36 37 38 36 38 38 37 38 37 37 42 49 43 43 45 45 46 47 51 56 55 50 42 42 53 50 47 52 59
21 22 21 23 27 28 28 30 31 29 31 31 32 34 34 35 36 35 36 37 40 39 35 35 37 39 39 45 46 48 45 45 49 53 59 57 49 43 33 43 36 39 50
24 22 22 23 23 24 26 26 26 25 26 28 28 28 29 31 32 30 32 36 40 37 31 29 30 34 40 46 48 44 46 43 45 49 52 52 60 48 50 47 30 47 43
23 22 20 20 20 21 20 20 21 21 22 22 24 24 26 27 27 27 28 31 31 31 29 28 28 32 37 43 51 54 51 48 43 46 50 50 46 45 44 31 40 13 27
24 21 19 17 17 18 17 19 19 19 21 24 25 23 21 22 23 25 25 26 27 29 30 30 33 36 38 43 49 53 55 53 48 45 48 42 27 25 36 18 23 24 13
25 21 18 16 16 17 16 16 18 18 20 23 22 20 19 19 21 24 24 23 25 29 32 33 33 34 36 38 40 44 46 48 43 45 44 47 45 34 37 39 25 28 37
28 23 19 14 14 14 15 15 14 17 20 21 17 16 15 17 18 21 22 21 18 20 26 31 34 37 38 37 37 36 37 40 40 39 45 39 41 42 46 48 44 39 41
31 24 19 14 12 12 11 10 12 16 18 16 14 14 15 18 17 16 18 25 26 26 28 32 36 35 36 36 31 25 27 31 31 29 35 36 34 37 40 41 47 45 42
28 23 18 13 11 9 7 10 12 14 14 13 12 12 12 12 14 13 12 16 22 26 25 23 25 27 25 25 26 20 23 27 27 27 28 31 32 35 38 40 42 46 37
21 20 16 13 10 8 7 9 10 10 11 11 10 11 11 11 9 8 7 9 11 15 18 16 15 15 14 12 12 14 15 19 22 24 24 25 31 34 36 37 42 40 37
24 19 16 13 11 8 8 7 7 6 6 7 7 8 11 14 13 14 14 16 19 21 24 25 24 22 20 19 10 2 4 12 12 12 13 13 15 27 35 44 45 43 35
34 22 18 15 12 10 8 4 1 3 5 7 8 8 10 14 17 19 21 21 24 26 27 28 31 32 32 29 25 23 19 11 9 12 12 18 15 9 16 30 35 39 38
41 30 23 17 15 13 12 9 7 6 6 5 6 8 11 12 13 15 14 16 17 17 19 20 20 22 22 22 24 27 26 29 31 30 28 25 21 21 22 17 15 20 18
42 35 30 25 22 19 20 19 16 15 11 7 3 2 4 4 7 8 7 8 10 12 13 13 14 15 16 18 18 17 15 15 14 15 16 15 14 16 17 16 16 19 17
45 37 32 31 29 26 29 30 28 26 21 18 14 12 10 9 8 7 9 11 11 11 12 12 11 12 12 12 13 12 12 12 12 11 10 9 11 12 9 9 11 9 13
42 38 34 34 32 34 38 39 39 37 28 28 25 22 19 17 15 13 11 11 10 10 10 10 10 8 8 9 10 9 10 9 9 10 9 8 7 6 5 5 4 4 3
43 39 39 34 34 40 46 46 49 35 39 37 35 31 28 26 24 21 19 17 15 14 13 12 11 10 10 9 7 5 5 7 8 9 10 9 8 7 5 5 4 4 6
47 43 44 44 36 40 51 56 47 46 47 48 42 39 37 35 32 30 28 26 23 21 19 17 15 14 12 12 12 12 10 10 11 13 13 14 14 14 15 15 16 16 17
51 47 47 48 47 42 47 57 56 52 54 59 53 46 46 43 41 39 36 34 31 29 28 26 24 22 21 21 22 20 20 21 22 22 23 23 23 24 24 25 28 29 29
55 51 50 49 49 44 48 49 54 59 60 64 63 57 54 51 49 48 45 42 38 37 36 33 32 31 28 25 27 29 29 29 31 34 34 34 34 34 35 35 35 37 39
54 50 47 48 49 47 45 46 46 55 63 68 70 67 63 59 56 54 52 49 46 43 42 40 40 39 37 34 35 36 36 37 37 43 45 43 43 44 44 45 45 46 47
Wind_Direction_500mb
244 241 237 239 240 245 251 260 272 282 290 296 302 303 306 304 297 291 288 287 284 282 282 280 277 274 275 274 272 271 272 269 267 268 267 261 257 254 252 250 251 246 241
188 202 216 228 235 244 254 267 278 287 293 298 301 303 304 303 299 297 295 292 287 281 280 277 275 272 268 270 274 273 273 269 262 253 262 262 261 251 256 254 248 251 250
181 200 221 231 243 255 268 278 284 287 294 300 304 305 303 301 300 299 297 293 287 280 276 275 275 268 268 272 273 273 269 267 266 246 240 251 249 257 249 249 245 237 235
73 241 244 256 262 272 277 279 288 298 302 304 304 302 300 301 298 296 295 292 290 285 280 271 261 260 265 272 277 271 263 250 259 259 245 242 254 245 250 233 235 237 234
336 289 273 273 274 276 282 290 296 301 303 302 299 299 302 300 304 303 298 295 290 286 283 269 257 257 261 265 271 269 261 254 252 249 253 251 247 250 253 278 246 236 231
331 309 292 284 281 286 292 296 302 302 298 297 302 303 302 305 305 306 302 301 298 295 288 281 269 262 255 259 267 265 254 252 252 250 247 249 247 247 243 255 259 237 229
326 312 293 284 287 291 293 298 299 298 300 305 305 306 306 306 306 308 309 311 312 306 299 289 287 274 259 256 263 260 262 257 253 253 246 245 247 248 249 241 250 245 224
320 316 299 293 290 291 294 296 300 307 310 309 309 310 310 308 304 310 313 315 313 311 304 294 287 283 269 262 264 268 266 261 258 245 250 249 242 250 252 250 262 241 235
330 323 308 298 297 296 298 303 308 310 310 310 309 309 307 304 314 310 310 313 313 307 305 297 290 283 282 275 267 265 265 267 262 240 249 243 237 239 237 238 230 238 243
336 321 312 308 305 302 303 308 310 313 314 314 312 309 310 310 308 307 310 313 314 308 302 298 298 295 287 282 273 267 264 263 264 243 255 233 223 218 224 225 228 246 287
330 326 321 316 309 304 312 312 318 325 327 324 320 312 312 306 303 305 312 324 319 311 311 313 315 308 303 297 288 280 270 262 263 256 257 239 236 217 224 242 255 242 247
332 329 326 317 311 309 316 320 332 341 336 332 328 323 315 307 303 301 312 314 315 308 305 305 303 303 302 302 297 286 264 254 257 257 245 233 232 232 236 241 244 243 231
338 332 330 326 313 312 322 329 345 347 341 342 339 333 327 313 310 308 306 307 310 311 312 312 309 308 306 299 292 298 279 266 256 250 237 231 222 226 225 227 223 220 225
327 333 333 329 322 325 330 335 347 352 355 4 1 356 345 334 327 325 317 311 316 318 320 321 317 307 300 297 296 285 271 261 256 257 249 241 232 219 228 231 233 220 219
329 330 332 328 323 327 323 331 343 356 13 21 30 30 25 31 26 10 10 8 354 356 2 358 345 342 342 325 295 296 270 259 264 263 256 249 244 225 214 226 230 223 218
345 329 330 323 311 304 309 320 348 2 31 41 48 51 46 52 58 49 48 50 47 45 41 41 31 27 21 19 17 355 267 256 257 241 224 227 236 230 215 217 224 227 228
346 334 321 310 296 287 280 260 201 85 81 80 76 63 67 70 72 64 59 57 58 58 57 59 57 58 55 53 51 56 57 67 121 131 136 126 109 124 183 205 210 212 212
342 327 312 294 280 269 252 225 197 172 157 135 104 86 75 74 71 75 67 54 53 56 50 44 45 53 61 64 66 61 63 65 65 69 67 69 73 79 80 94 133 147 151
331 320 301 290 275 259 246 236 231 224 214 205 188 137 90 63 28 20 29 35 29 28 34 40 41 37 35 45 47 51 53 67 81 87 93 94 86 76 83 87 106 108 120
332 318 296 283 275 264 251 244 241 240 237 240 244 245 251 262 272 289 310 327 343 355 1 11 21 22 29 29 36 40 48 50 60 70 79 90 89 88 86 68 60 85 114
326 326 312 284 273 261 257 251 247 248 248 248 249 254 257 258 255 257 268 284 298 309 319 330 343 0 16 20 23 22 19 14 17 24 32 42 52 54 58 52 60 43 13
320 313 311 308 282 266 262 260 254 253 248 255 256 256 258 259 261 262 263 264 266 273 284 293 308 319 328 336 342 343 342 340 340 339 338 339 338 339 337 327 324 293 267
317 312 305 296 293 277 265 264 264 255 251 257 260 260 260 260 261 262 264 267 270 273 274 278 285 289 292 294 296 300 300 299 302 300 299 299 298 299 297 294 290 286 280
320 312 305 301 296 286 275 267 265 260 254 254 257 259 260 261 262 263 264 266 267 269 271 273 276 276 281 286 291 292 292 293 294 292 290 291 292 290 287 287 289 289 285
323 315 309 302 304 300 281 271 263 257 253 254 255 256 258 260 262 263 266 268 268 269 272 275 276 277 276 276 277 280 283 286 287 287 287 288 288 288 288 287 285 283 282
327 321 316 308 306 306 294 279 271 260 254 250 252 253 256 259 261 264 266 267 269 269 270 272 274 275 276 277 278 279 280 282 284 285 287 286 286 286 287 287 286 285 284
Wind_Speed_850mb
28 32 41 41 41 41 41 41 41 45 48 53 59 65 63 54 48 45 44 43 44 45 46 48 46 43 41 43 51 53 51 50 41 45 51 67 68 66 72 81 72 70 85
9 15 23 30 34 37 37 38 42 45 50 57 60 58 53 49 47 46 44 44 45 46 48 47 45 41 35 41 43 47 51 46 37 40 39 44 46 64 66 68 69 67 77
6 9 15 23 27 29 32 35 40 47 53 55 51 47 45 42 40 38 44 46 45 45 46 46 42 38 35 39 41 38 39 44 44 42 46 33 45 38 55 59 65 70 73
4 3 12 18 21 25 30 37 43 47 47 45 42 42 41 40 38 42 41 44 46 44 40 38 39 35 37 42 43 38 39 42 46 43 56 65 46 19 20 44 55 64 70
6 10 15 19 23 29 34 41 43 41 40 39 38 38 38 37 39 38 39 38 39 41 37 35 44 45 46 42 45 46 45 45 49 52 47 50 60 54 46 17 42 61 71
15 18 21 24 29 33 35 37 37 36 36 36 35 35 36 37 38 36 38 38 37 38 37 37 42 49 43 43 45 45 46 47 51 56 55 50 42 42 53 50 47 52 59
21 22 21 23 27 28 28 30 31 29 31 31 32 34 34 35 36 35 36 37 40 39 35 35 37 39 39 45 46 48 45 45 49 53 59 57 49 43 33 43 36 39 50
24 22 22 23 23 24 26 26 26 25 26 28 28 28 29 31 32 30 32 36 40 37 31 29 30 34 40 46 48 44 46 43 45 49 52 52 60 48 50 47 30 47 43
23 22 20 20 20 21 20 20 21 21 22 22 24 24 26 27 27 27 28 31 31 31 29 28 28 32 37 43 51 54 51 48 43 46 50 50 46 45 44 31 40 13 27
24 21 19 17 17 18 17 19 19 19 21 24 25 23 21 22 23 25 25 26 27 29 30 30 33 36 38 43 49 53 55 53 48 45 48 42 27 25 36 18 23 24 13
25 21 18 16 16 17 16 16 18 18 20 23 22 20 19 19 21 24 24 23 25 29 32 33 33 34 36 38 40 44 46 48 43 45 44 47 45 34 37 39 25 28 37
28 23 19 14 14 14 15 15 14 17 20 21 17 16 15 17 18 21 22 21 18 20 26 31 34 37 38 37 37 36 37 40 40 39 45 39 41 42 46 48 44 39 41
31 24 19 14 12 12 11 10 12 16 18 16 14 14 15 18 17 16 18 25 26 26 28 32 36 35 36 36 31 25 27 31 31 29 35 36 34 37 40 41 47 45 42
28 23 18 13 11 9 7 10 12 14 14 13 12 12 12 12 14 13 12 16 22 26 25 23 25 27 25 25 26 20 23 27 27 27 28 31 32 35 38 40 42 46 37
21 20 16 13 10 8 7 9 10 10 11 11 10 11 11 11 9 8 7 9 11 15 18 16 15 15 14 12 12 14 15 19 22 24 24 25 31 34 36 37 42 40 37
24 19 16 13 11 8 8 7 7 6 6 7 7 8 11 14 13 14 14 16 19 21 24 25 24 22 20 19 10 2 4 12 12 12 13 13 15 27 35 44 45 43 35
34 22 18 15 12 10 8 4 1 3 5 7 8 8 10 14 17 19 21 21 24 26 27 28 31 32 32 29 25 23 19 11 9 12 12 18 15 9 16 30 35 39 38
41 30 23 17 15 13 12 9 7 6 6 5 6 8 11 12 13 15 14 16 17 17 19 20 20 22 22 22 24 27 26 29 31 30 28 25 21 21 22 17 15 20 18
42 35 30 25 22 19 20 19 16 15 11 7 3 2 4 4 7 8 7 8 10 12 13 13 14 15 16 18 18 17 15 15 14 15 16 15 14 16 17 16 16 19 17
45 37 32 31 29 26 29 30 28 26 21 18 14 12 10 9 8 7 9 11 11 11 12 12 11 12 12 12 13 12 12 12 12 11 10 9 11 12 9 9 11 9 13
42 38 34 34 32 34 38 39 39 37 28 28 25 22 19 17 15 13 11 11 10 10 10 10 10 8 8 9 10 9 10 9 9 10 9 8 7 6 5 5 4 4 3
43 39 39 34 34 40 46 46 49 35 39 37 35 31 28 26 24 21 19 17 15 14 13 12 11 10 10 9 7 5 5 7 8 9 10 9 8 7 5 5 4 4 6
47 43 44 44 36 40 51 56 47 46 47 48 42 39 37 35 32 30 28 26 23 21 19 17 15 14 12 12 12 12 10 10 11 13 13 14 14 14 15 15 16 16 17
51 47 47 48 47 42 47 57 56 52 54 59 53 46 46 43 41 39 36 34 31 29 28 26 24 22 21 21 22 20 20 21 22 22 23 23 23 24 24 25 28 29 29
55 51 50 49 49 44 48 49 54 59 60 64 63 57 54 51 49 48 45 42 38 37 36 33 32 31 28 25 27 29 29 29 31 34 34 34 34 34 35 35 35 37 39
54 50 47 48 49 47 45 46 46 55 63 68 70 67 63 59 56 54 52 49 46 43 42 40 40 39 37 34 35 36 36 37 37 43 45 43 43 44 44 45 45 46 47
Wind_Direction_850mb
244 241 237 239 240 245 251 260 272 282 290 296 302 303 306 304 297 291 288 287 284 282 282 280 277 274 275 274 272 271 272 269 267 268 267 261 257 254 252 250 251 246 241
188 202 216 228 235 244 254 267 278 287 293 298 301 303 304 303 299 297 295 292 287 281 280 277 275 272 268 270 274 273 273 269 262 253 262 262 261 251 256 254 248 251 250
181 200 221 231 243 255 268 278 284 287 294 300 304 305 303 301 300 299 297 293 287 280 276 275 275 268 268 272 273 273 269 267 266 246 240 251 249 257 249 249 245 237 235
73 241 244 256 262 272 277 279 288 298 302 304 304 302 300 301 298 296 295 292 290 285 280 271 261 260 265 272 277 271 263 250 259 259 245 242 254 245 250 233 235 237 234
336 289 273 273 274 276 282 290 296 301 303 302 299 299 302 300 304 303 298 295 290 286 283 269 257 257 261 265 271 269 261 254 252 249 253 251 247 250 253 278 246 236 231
331 309 292 284 281 286 292 296 302 302 298 297 302 303 302 305 305 306 302 301 298 295 288 281 269 262 255 259 267 265 254 252 252 250 247 249 247 247 243 255 259 237 229
326 312 293 284 287 291 293 298 299 298 300 305 305 306 306 306 306 308 309 311 312 306 299 289 287 274 259 256 263 260 262 257 253 253 246 245 247 248 249 241 250 245 224
320 316 299 293 290 291 294 296 300 307 310 309 309 310 310 308 304 310 313 315 313 311 304 294 287 283 269 262 264 268 266 261 258 245 250 249 242 250 252 250 262 241 235
330 323 308 298 297 296 298 303 308 310 310 310 309 309 307 304 314 310 310 313 313 307 305 297 290 283 282 275 267 265 265 267 262 240 249 243 237 239 237 238 230 238 243
336 321 312 308 305 302 303 308 310 313 314 314 312 309 310 310 308 307 310 313 314 308 302 298 298 295 287 282 273 267 264 263 264 243 255 233 223 218 224 225 228 246 287
330 326 321 316 309 304 312 312 318 325 327 324 320 312 312 306 303 305 312 324 319 311 311 313 315 308 303 297 288 280 270 262 263 256 257 239 236 217 224 242 255 242 247
332 329 326 317 311 309 316 320 332 341 336 332 328 323 315 307 303 301 312 314 315 308 305 305 303 303 302 302 297 286 264 254 257 257 245 233 232 232 236 241 244 243 231
338 332 330 326 313 312 322 329 345 347 341 342 339 333 327 313 310 308 306 307 310 311 312 312 309 308 306 299 292 298 279 266 256 250 237 231 222 226 225 227 223 220 225
327 333 333 329 322 325 330 335 347 352 355 4 1 356 345 334 327 325 317 311 316 318 320 321 317 307 300 297 296 285 271 261 256 257 249 241 232 219 228 231 233 220 219
329 330 332 328 323 327 323 331 343 356 13 21 30 30 25 31 26 10 10 8 354 356 2 358 345 342 342 325 295 296 270 259 264 263 256 249 244 225 214 226 230 223 218
345 329 330 323 311 304 309 320 348 2 31 41 48 51 46 52 58 49 48 50 47 45 41 41 31 27 21 19 17 355 267 256 257 241 224 227 236 230 215 217 224 227 228
346 334 321 310 296 287 280 260 201 85 81 80 76 63 67 70 72 64 59 57 58 58 57 59 57 58 55 53 51 56 57 67 121 131 136 126 109 124 183 205 210 212 212
342 327 312 294 280 269 252 225 197 172 157 135 104 86 75 74 71 75 67 54 53 56 50 44 45 53 61 64 66 61 63 65 65 69 67 69 73 79 80 94 133 147 151
331 320 301 290 275 259 246 236 231 224 214 205 188 137 90 63 28 20 29 35 29 28 34 40 41 37 35 45 47 51 53 67 81 87 93 94 86 76 83 87 106 108 120
332 318 296 283 275 264 251 244 241 240 237 240 244 245 251 262 272 289 310 327 343 355 1 11 21 22 29 29 36 40 48 50 60 70 79 90 89 88 86 68 60 85 114
326 326 312 284 273 261 257 251 247 248 248 248 249 254 257 258 255 257 268 284 298 309 319 330 343 0 16 20 23 22 19 14 17 24 32 42 52 54 58 52 60 43 13
320 313 311 308 282 266 262 260 254 253 248 255 256 256 258 259 261 262 263 264 266 273 284 293 308 319 328 336 342 343 342 340 340 339 338 339 338 339 337 327 324 293 267
317 312 305 296 293 277 265 264 264 255 251 257 260 260 260 260 261 262 264 267 270 273 274 278 285 289 292 294 296 300 300 299 302 300 299 299 298 299 297 294 290 286 280
320 312 305 301 296 286 275 267 265 260 254 254 257 259 260 261 262 263 264 266 267 269 271 273 276 276 281 286 291 292 292 293 294 292 290 291 292 290 287 287 289 289 285
323 315 309 302 304 300 281 271 263 257 253 254 255 256 258 260 262 263 266 268 268 269 272 275 276 277 276 276 277 280 283 286 287 287 287 288 288 288 288 287 285 283 282
327 321 316 308 306 306 294 279 271 260 254 250 252 253 256 259 261 264 266 267 269 269 270 272 274 275 276 277 278 279 280 282 284 285 287 286 286 286 287 287 286 285 284